[[{"header":{"parameterUnit":"m.s-1","parameterCategory":2,"la1":30.2991,"la2":30.254,"lo1":-89.0895,"lo2":-89.0444,"dy":0.0017,"dx":0.0017,"nx":28,"ny":28,"refTime":"2024-03-10T03:00:00:Z","depth":"0","parameterNumber":2,"parameterNumberName":"U-component_of_CURRENTS"},"data":[0,0,0,0,0,0,0,0,0,0,0,0,0,0,0,0,0,0,0,0,0,0,0,0,0,0,0,0,0,0,0,0,0,0,0,0,0,0,0,0,0,0,0,0,0,0,0,0,0,0,0,0,0,0,0,0,0,0,-0.2207,-0.2207,0,-0.2218,-0.2218,-0.2218,-0.2225,-0.2225,-0.2225,-0.2224,-0.2184,-0.2183,-0.2182,0,0,0,0,0,0,0,0,0,0,0,0,0,-0.214,-0.2142,-0.2207,-0.2207,-0.2207,-0.2218,-0.2218,-0.2218,-0.2225,-0.2225,-0.2225,-0.2224,-0.2184,-0.2183,-0.2182,0,0,0,0,0,0,0,0,0,0,0,0,0,-0.2163,-0.2142,-0.2207,-0.2211,-0.2211,-0.2218,-0.2218,-0.2218,-0.2225,-0.2225,-0.2225,-0.2224,-0.2185,-0.2183,-0.2181,-0.2174,0,0,-0.2177,-0.2176,0,0,0,0,0,0,0,0,-0.2162,-0.2165,-0.221,-0.221,-0.2211,-0.2219,-0.218,-0.2201,-0.2225,-0.222,-0.2224,-0.2224,-0.219,-0.2188,-0.2192,-0.2172,-0.217,-0.2177,-0.2176,-0.2175,-0.2175,0,0,0,0,0,0,0,-0.216,-0.2165,-0.2212,-0.221,-0.221,-0.2194,-0.2198,-0.2184,-0.2205,-0.2221,-0.2221,-0.2221,-0.219,-0.2194,-0.2191,-0.2169,-0.2177,-0.2175,-0.2174,-0.2174,-0.2173,-0.2173,0,0,0,0,0,0,-0.216,-0.2164,-0.2211,-0.2212,-0.2185,-0.2196,-0.22,-0.2217,-0.2207,-0.2205,-0.2221,-0.2221,-0.2197,-0.2193,-0.219,-0.2174,-0.2175,-0.2174,-0.2173,-0.2172,-0.2173,-0.2174,0,0,0,0,0,0,-0.2159,-0.2165,-0.2211,-0.2186,-0.2191,-0.2197,-0.2216,-0.2217,-0.2226,-0.2207,-0.2205,-0.2229,-0.2197,-0.2192,-0.2185,-0.2172,-0.2173,-0.2171,-0.2171,-0.2172,-0.2173,-0.2145,0,0,0,0,0,0,-0.2157,-0.2165,-0.2174,-0.2187,-0.2192,-0.2228,-0.2216,-0.2218,-0.2226,-0.2226,-0.2213,-0.2209,-0.2196,-0.2188,-0.2184,-0.217,-0.217,-0.2169,-0.2171,-0.2173,-0.2145,-0.2145,-0.2146,0,0,0,0,0,-0.2155,-0.2175,-0.2175,-0.218,-0.2206,-0.2228,-0.223,-0.2234,-0.2226,-0.224,-0.2226,-0.221,-0.2196,-0.2187,-0.2182,-0.2168,-0.2169,-0.2171,-0.2173,-0.2145,-0.2145,-0.2146,0,0,0,0,0,0,-0.2152,-0.2178,-0.2178,-0.2205,-0.2218,-0.2229,-0.2239,-0.2238,-0.2239,-0.2235,-0.2215,-0.221,-0.2206,-0.2199,-0.219,-0.2179,-0.2182,-0.2184,-0.2163,-0.2163,-0.2164,-0.2158,-0.2169,0,0,0,0,0,-0.2154,-0.218,-0.2194,-0.2217,-0.2224,-0.223,-0.2237,-0.2241,-0.2243,-0.2244,-0.223,-0.2219,-0.2211,-0.2196,-0.2198,-0.2179,-0.2178,-0.2173,-0.2173,-0.2173,-0.2169,-0.2163,-0.2162,-0.218,-0.218,-0.218,0,0,-0.216,-0.2176,-0.219,-0.2217,-0.2227,-0.2238,-0.2236,-0.2254,-0.2253,-0.2237,-0.223,-0.2225,-0.2213,-0.2201,-0.2197,-0.2187,-0.217,-0.2176,-0.2175,-0.2171,-0.2165,-0.2163,-0.2161,-0.2182,-0.2181,-0.2181,0,0,-0.2173,-0.2198,-0.2214,-0.223,-0.2246,-0.2251,-0.2257,-0.2268,-0.2264,-0.2258,-0.2249,-0.2234,-0.2221,-0.2202,-0.2191,-0.2196,-0.2184,-0.2202,-0.2176,-0.217,-0.2168,-0.2166,-0.2165,-0.2162,-0.2187,-0.2187,-0.2187,0,-0.2168,-0.2194,-0.2222,-0.2236,-0.2244,-0.2257,-0.2264,-0.2267,-0.227,-0.2254,-0.2257,-0.223,-0.2218,-0.2187,-0.2187,-0.2191,-0.2193,-0.2167,-0.2167,-0.2165,-0.2163,-0.2163,-0.2161,-0.2186,-0.2186,-0.2186,-0.2186,0,-0.219,-0.2206,-0.222,-0.2241,-0.2258,-0.2272,-0.228,-0.228,-0.227,-0.2258,-0.2238,-0.2224,-0.2201,-0.2197,-0.2185,-0.2164,-0.2172,-0.2177,-0.2157,-0.2159,-0.216,-0.2158,-0.2184,-0.2184,-0.2185,-0.2185,0,0,-0.2163,-0.222,-0.2217,-0.2222,-0.2258,-0.2266,-0.2273,-0.2264,-0.2249,-0.2242,-0.2218,-0.2192,-0.2179,-0.2169,-0.2156,-0.2138,-0.2123,-0.2145,-0.2146,-0.2129,-0.2114,-0.2081,-0.2077,-0.2125,-0.2124,-0.2124,-0.2119,0,-0.2153,-0.2176,-0.2211,-0.222,-0.2227,-0.2251,-0.2254,-0.2252,-0.2243,-0.2228,-0.2201,-0.2184,-0.2171,-0.2156,-0.2137,-0.2142,-0.2118,-0.2124,-0.2129,-0.2129,-0.2086,-0.2073,-0.1962,-0.1945,-0.2117,-0.2117,-0.2117,0,-0.2131,-0.2154,-0.2165,-0.2194,-0.22,-0.221,-0.2207,-0.221,-0.2202,-0.2194,-0.2171,-0.2169,-0.2143,-0.214,-0.2119,-0.2127,-0.2112,-0.2109,-0.2109,-0.2085,-0.2093,-0.1973,-0.1935,-0.1915,-0.2115,-0.2115,-0.2115,0,-0.2065,-0.2104,-0.2108,-0.2122,-0.2168,-0.2167,-0.2181,-0.2185,-0.2179,-0.217,-0.217,-0.2149,-0.2143,-0.2129,-0.2123,-0.2121,-0.2114,-0.2112,-0.2064,-0.2062,-0.1971,-0.1962,-0.1897,-0.2083,-0.2083,-0.2083,-0.2083,0,-0.2021,-0.2019,-0.2076,-0.2078,-0.2079,-0.2123,-0.2115,-0.2123,-0.2136,-0.2121,-0.2141,-0.2135,-0.2141,-0.2142,-0.2128,-0.2096,-0.2115,-0.2054,-0.2053,-0.1961,-0.1951,-0.1933,-0.195,-0.2083,-0.2083,-0.2083,-0.2083,0,-0.1939,-0.1981,-0.1985,-0.2033,-0.2048,-0.2041,-0.2085,-0.2069,-0.2101,-0.209,-0.2089,-0.2125,-0.2129,-0.2136,-0.2126,-0.2097,-0.203,-0.2053,-0.1949,-0.1935,-0.186,-0.188,-0.1826,-0.1774,-0.1992,-0.1991,-0.199,0,-0.19,-0.1894,-0.1938,-0.1941,-0.1963,-0.1977,-0.198,-0.2029,-0.202,-0.2073,-0.2055,-0.2088,-0.2085,-0.2084,-0.2042,-0.2011,-0.1993,-0.1884,-0.1848,-0.183,-0.1853,-0.1865,-0.1825,-0.1721,-0.1718,-0.1716,-0.1714,0,-0.1818,-0.1831,-0.184,-0.185,-0.1857,-0.1869,-0.1883,-0.1882,-0.1927,-0.1943,-0.1962,-0.1982,-0.2001,-0.1933,-0.1911,-0.1872,-0.1822,-0.1834,-0.183,-0.1643,-0.1635,-0.1592,-0.1769,-0.1693,-0.1695,-0.1697,-0.1698,-0.1699,-0.1738,-0.1727,-0.1733,-0.1735,-0.1749,-0.1734,-0.17,-0.1732,-0.1727,-0.1722,-0.1817,-0.1821,-0.1809,-0.1768,-0.1743,-0.1637,-0.1686,-0.1557,-0.1587,-0.1604,-0.1532,-0.167,-0.1588,-0.1589,-0.159,-0.1592,-0.1593,0,-0.1617,-0.1618,-0.1616,-0.1608,-0.1577,-0.1621,-0.1604,-0.1554,-0.1518,-0.1574,-0.1586,-0.1599,-0.1536,-0.1547,-0.1467,-0.1398,-0.1359,-0.1361,-0.1336,-0.1309,-0.1425,-0.139,-0.1243,-0.1243,-0.1243,-0.1243,-0.1243,-0.1243,-0.1544,-0.15,-0.151,-0.1431,-0.1425,-0.1332,-0.1294,-0.126,-0.1267,-0.126,-0.1299,-0.1381,-0.1406,-0.1449,-0.135,-0.1276,-0.1243,-0.1191,-0.1239,-0.1314,-0.1334,-0.1353,-0.1322,-0.1163,-0.1163,-0.1041,-0.104,-0.104]},{"header":{"parameterUnit":"m.s-1","parameterCategory":2,"la1":30.2991,"la2":30.254,"lo1":-89.0895,"lo2":-89.0444,"dy":0.0017,"dx":0.0017,"nx":28,"ny":28,"refTime":"2024-03-10T03:00:00:Z","depth":"0","parameterNumber":3,"parameterNumberName":"V-component_of_CURRENTS"},"data":[0,0,0,0,0,0,0,0,0,0,0,0,0,0,0,0,0,0,0,0,0,0,0,0,0,0,0,0,0,0,0,0,0,0,0,0,0,0,0,0,0,0,0,0,0,0,0,0,0,0,0,0,0,0,0,0,0,0,-0.051,-0.0509,0,-0.0384,-0.0382,-0.0381,-0.033,-0.033,-0.033,-0.0331,-0.0278,-0.0276,-0.0275,0,0,0,0,0,0,0,0,0,0,0,0,0,-0.056,-0.056,-0.051,-0.0509,-0.0507,-0.0384,-0.0382,-0.0381,-0.033,-0.033,-0.033,-0.0331,-0.0279,-0.0277,-0.0275,0,0,0,0,0,0,0,0,0,0,0,0,0,-0.0497,-0.056,-0.051,-0.0467,-0.0462,-0.0385,-0.0382,-0.038,-0.033,-0.033,-0.0331,-0.0331,-0.0279,-0.0277,-0.0274,-0.025,0,0,-0.0267,-0.0266,0,0,0,0,0,0,0,0,-0.0501,-0.0495,-0.0475,-0.047,-0.0464,-0.0373,-0.038,-0.034,-0.033,-0.038,-0.0331,-0.0331,-0.0316,-0.0311,-0.0285,-0.0247,-0.0245,-0.0266,-0.0265,-0.0264,-0.0263,0,0,0,0,0,0,0,-0.0505,-0.0499,-0.046,-0.0473,-0.0466,-0.0403,-0.0396,-0.0372,-0.0348,-0.0375,-0.0371,-0.0357,-0.0314,-0.0287,-0.0284,-0.0244,-0.0266,-0.0264,-0.0263,-0.0262,-0.0169,-0.0169,0,0,0,0,0,0,-0.0528,-0.0504,-0.0464,-0.0456,-0.0484,-0.0403,-0.0394,-0.0402,-0.0347,-0.0338,-0.0357,-0.0355,-0.0291,-0.0287,-0.0282,-0.0245,-0.0264,-0.0261,-0.026,-0.017,-0.0169,-0.0168,0,0,0,0,0,0,-0.053,-0.0527,-0.0469,-0.0476,-0.0464,-0.0402,-0.041,-0.0399,-0.0377,-0.0332,-0.0325,-0.0347,-0.0292,-0.0285,-0.0245,-0.0243,-0.026,-0.0258,-0.0171,-0.017,-0.0169,-0.0175,0,0,0,0,0,0,-0.0533,-0.0529,-0.0542,-0.0479,-0.0465,-0.0435,-0.0409,-0.0396,-0.0367,-0.0364,-0.0321,-0.0316,-0.0291,-0.0248,-0.0242,-0.024,-0.0256,-0.0173,-0.0171,-0.0169,-0.0176,-0.0174,-0.0173,0,0,0,0,0,-0.0535,-0.0555,-0.0544,-0.0538,-0.0486,-0.0435,-0.0422,-0.0378,-0.0367,-0.0359,-0.0314,-0.0318,-0.0233,-0.0245,-0.0238,-0.0235,-0.0174,-0.0171,-0.0169,-0.0177,-0.0175,-0.0173,0,0,0,0,0,0,-0.0578,-0.055,-0.0536,-0.0546,-0.0499,-0.0427,-0.0418,-0.0382,-0.0338,-0.0339,-0.0298,-0.0289,-0.0252,-0.024,-0.0254,-0.0202,-0.0207,-0.0204,-0.0216,-0.0213,-0.0212,-0.0236,-0.0254,0,0,0,0,0,-0.0596,-0.0611,-0.0556,-0.0563,-0.0547,-0.0483,-0.0457,-0.0423,-0.0374,-0.0355,-0.0317,-0.0279,-0.0236,-0.0223,-0.0186,-0.016,-0.015,-0.0155,-0.0153,-0.0152,-0.0166,-0.0136,-0.0133,-0.0161,-0.0161,-0.0161,0,0,-0.0615,-0.06,-0.0609,-0.0574,-0.0539,-0.0507,-0.047,-0.0437,-0.0404,-0.0358,-0.0314,-0.027,-0.0224,-0.0183,-0.0169,-0.0177,-0.0134,-0.0149,-0.0148,-0.0163,-0.0134,-0.0131,-0.0129,-0.016,-0.016,-0.016,0,0,-0.0643,-0.0649,-0.0658,-0.0628,-0.0579,-0.0534,-0.0529,-0.0458,-0.0427,-0.0371,-0.0324,-0.0277,-0.0222,-0.0179,-0.0153,-0.0122,-0.012,-0.0117,-0.0135,-0.0105,-0.0103,-0.0101,-0.0072,-0.0068,-0.0123,-0.0123,-0.0123,0,-0.066,-0.0671,-0.0648,-0.0635,-0.0613,-0.0552,-0.0534,-0.0487,-0.0406,-0.0378,-0.0367,-0.0256,-0.0219,-0.0159,-0.0142,-0.012,-0.0106,-0.0147,-0.0105,-0.0103,-0.0101,-0.0072,-0.0067,-0.0123,-0.0123,-0.0123,-0.0123,0,-0.068,-0.0686,-0.069,-0.0662,-0.063,-0.0613,-0.0544,-0.0507,-0.0462,-0.0406,-0.034,-0.0272,-0.0212,-0.0187,-0.0154,-0.0116,-0.0109,-0.0101,-0.0116,-0.0099,-0.0068,-0.0063,-0.0123,-0.0123,-0.0123,-0.0123,0,0,-0.0723,-0.0708,-0.0708,-0.0704,-0.0648,-0.0622,-0.0575,-0.0509,-0.0479,-0.0405,-0.0364,-0.0273,-0.0239,-0.0207,-0.0158,-0.0131,-0.009,-0.0117,-0.0115,-0.0099,-0.0027,0.0005,0.0014,-0.0079,-0.0078,-0.0077,-0.0007,0,-0.0741,-0.0743,-0.0719,-0.0708,-0.0703,-0.0644,-0.0603,-0.0536,-0.0476,-0.0421,-0.0347,-0.0289,-0.0246,-0.0218,-0.018,-0.0111,-0.0079,-0.011,-0.0038,-0.0036,-0.0018,0.002,0.004,0.0106,-0.0002,-0.0002,-0.0001,0,-0.0761,-0.0765,-0.0765,-0.0742,-0.0733,-0.071,-0.0648,-0.0601,-0.0509,-0.0463,-0.0396,-0.0335,-0.0263,-0.0241,-0.0131,-0.0155,-0.0096,-0.0049,-0.0045,-0.0016,0.0005,0.0071,0.012,0.0229,0.0007,0.0006,0.0006,0,-0.0805,-0.0795,-0.0804,-0.0797,-0.0752,-0.074,-0.0706,-0.062,-0.0579,-0.0495,-0.0464,-0.0368,-0.0325,-0.0242,-0.0129,-0.0134,-0.002,-0.0013,0.0073,0.0076,0.0107,0.0111,0.0258,0.0054,0.0053,0.0053,0.0053,0,-0.0839,-0.0844,-0.0834,-0.084,-0.0846,-0.0792,-0.077,-0.0717,-0.0641,-0.06,-0.0499,-0.0456,-0.0328,-0.0238,-0.0143,-0.0013,-0.0026,0.0074,0.0098,0.0108,0.0111,0.0217,0.0259,0.0056,0.0055,0.0055,0.0054,0,-0.0876,-0.0871,-0.0887,-0.0872,-0.0869,-0.0874,-0.0827,-0.0803,-0.0724,-0.0674,-0.0651,-0.0523,-0.0402,-0.0261,-0.0119,-0.003,0.0162,0.0135,0.014,0.0164,0.0339,0.0378,0.0529,0.0594,0.0238,0.0239,0.024,0,-0.0889,-0.0904,-0.0925,-0.0948,-0.0948,-0.0945,-0.0934,-0.0857,-0.0822,-0.0713,-0.0693,-0.0566,-0.0463,-0.023,-0.0046,0.0139,0.0222,0.0258,0.0256,0.036,0.0422,0.045,0.0494,0.0302,0.0303,0.0304,0.0305,0,-0.0913,-0.0928,-0.095,-0.1008,-0.1026,-0.1027,-0.1007,-0.0987,-0.0888,-0.0839,-0.0752,-0.0668,-0.0423,-0.0192,0.0062,0.0168,0.0345,0.0288,0.0398,0.0488,0.0526,0.0594,0.0242,0.0316,0.0315,0.0314,0.0314,0.0313,-0.0928,-0.0967,-0.1009,-0.1062,-0.1091,-0.1097,-0.1081,-0.1049,-0.0999,-0.0899,-0.0811,-0.0667,-0.0312,0.0054,0.019,0.0478,0.0448,0.0551,0.0592,0.0612,0.0675,0.0347,0.0444,0.0444,0.0443,0.0443,0.0443,0,-0.0934,-0.0989,-0.1052,-0.111,-0.1147,-0.1144,-0.1112,-0.1077,-0.103,-0.0933,-0.0833,-0.0467,-0.0116,0.0212,0.0637,0.0782,0.0809,0.0841,0.089,0.0921,0.0639,0.0643,0.0784,0.0784,0.0784,0.0784,0.0784,0.0783,-0.0944,-0.101,-0.1058,-0.1139,-0.1174,-0.1171,-0.1146,-0.1102,-0.1015,-0.0842,-0.0652,-0.0492,-0.0008,0.0684,0.1064,0.1081,0.1202,0.1177,0.1248,0.1054,0.103,0.1007,0.1023,0.1241,0.1241,0.1518,0.1521,0.1523]}],[{"header":{"parameterUnit":"m.s-1","parameterCategory":2,"la1":30.2991,"la2":30.254,"lo1":-89.0895,"lo2":-89.0444,"dy":0.0017,"dx":0.0017,"nx":28,"ny":28,"refTime":"2024-03-10T03:00:00:Z","depth":"2","parameterNumber":2,"parameterNumberName":"U-component_of_CURRENTS"},"data":[0,0,0,0,0,0,0,0,0,0,0,0,0,0,0,0,0,0,0,0,0,0,0,0,0,0,0,0,0,0,0,0,0,0,0,0,0,0,0,0,0,0,0,0,0,0,0,0,0,0,0,0,0,0,0,0,0,0,-0.1888,-0.1888,0,-0.1901,-0.1901,-0.1902,-0.1927,-0.1927,-0.1927,-0.1928,-0.1933,-0.1933,-0.1933,0,0,0,0,0,0,0,0,0,0,0,0,0,-0.1823,-0.1825,-0.1888,-0.1888,-0.1888,-0.1901,-0.1901,-0.1902,-0.1927,-0.1927,-0.1927,-0.1928,-0.1933,-0.1933,-0.1933,0,0,0,0,0,0,0,0,0,0,0,0,0,-0.1849,-0.1825,-0.1888,-0.1899,-0.19,-0.1901,-0.1901,-0.1902,-0.1927,-0.1927,-0.1927,-0.1928,-0.1933,-0.1933,-0.1933,-0.1929,0,0,-0.1933,-0.1933,0,0,0,0,0,0,0,0,-0.1847,-0.1852,-0.1898,-0.1898,-0.1899,-0.1909,-0.188,-0.1909,-0.1927,-0.1921,-0.1928,-0.1928,-0.1922,-0.1923,-0.193,-0.1929,-0.1929,-0.1933,-0.1933,-0.1933,-0.1933,0,0,0,0,0,0,0,-0.1845,-0.1851,-0.1897,-0.1897,-0.1898,-0.1881,-0.1887,-0.1886,-0.1923,-0.1921,-0.1922,-0.1918,-0.1923,-0.193,-0.1931,-0.1929,-0.1933,-0.1933,-0.1933,-0.1933,-0.1976,-0.1977,0,0,0,0,0,0,-0.184,-0.185,-0.1896,-0.1897,-0.1869,-0.1883,-0.1888,-0.1909,-0.1923,-0.1924,-0.1917,-0.1919,-0.193,-0.193,-0.1931,-0.1941,-0.1933,-0.1933,-0.1933,-0.1974,-0.1976,-0.1977,0,0,0,0,0,0,-0.1839,-0.1845,-0.1896,-0.1869,-0.1874,-0.1884,-0.1906,-0.1909,-0.1928,-0.1919,-0.1921,-0.1934,-0.193,-0.1931,-0.1938,-0.194,-0.1933,-0.1933,-0.1973,-0.1975,-0.1976,-0.1951,0,0,0,0,0,0,-0.1838,-0.1845,-0.1862,-0.1869,-0.1875,-0.1916,-0.1906,-0.1909,-0.1922,-0.1924,-0.1934,-0.1934,-0.1931,-0.1938,-0.1938,-0.194,-0.1933,-0.1972,-0.1974,-0.1976,-0.195,-0.1951,-0.1952,0,0,0,0,0,-0.1836,-0.1856,-0.1863,-0.1868,-0.1897,-0.1916,-0.1919,-0.1927,-0.1923,-0.1943,-0.1938,-0.1935,-0.1952,-0.1938,-0.1938,-0.1941,-0.1971,-0.1973,-0.1976,-0.195,-0.1951,-0.1952,0,0,0,0,0,0,-0.1823,-0.186,-0.1869,-0.1896,-0.1913,-0.192,-0.1919,-0.1934,-0.1947,-0.1944,-0.1938,-0.1939,-0.1952,-0.1955,-0.1941,-0.1965,-0.1965,-0.1968,-0.1946,-0.1947,-0.1948,-0.1942,-0.1933,0,0,0,0,0,-0.183,-0.1888,-0.1885,-0.1926,-0.1905,-0.1915,-0.1922,-0.1941,-0.1946,-0.1953,-0.1955,-0.1958,-0.1961,-0.1961,-0.1972,-0.1973,-0.1974,-0.1982,-0.1983,-0.1983,-0.1982,-0.1982,-0.1981,-0.1985,-0.1985,-0.1985,0,0,-0.1835,-0.1873,-0.1899,-0.1932,-0.1925,-0.1925,-0.1921,-0.1939,-0.1958,-0.1949,-0.1962,-0.1965,-0.1966,-0.1973,-0.1979,-0.1973,-0.1985,-0.1987,-0.1986,-0.1985,-0.1984,-0.1983,-0.1983,-0.1987,-0.1987,-0.1986,0,0,-0.1868,-0.1893,-0.1922,-0.1933,-0.1945,-0.1953,-0.1959,-0.1963,-0.1968,-0.1989,-0.1981,-0.1982,-0.1996,-0.1986,-0.1984,-0.1999,-0.1996,-0.2014,-0.2,-0.2,-0.1999,-0.1998,-0.1998,-0.1997,-0.2006,-0.2006,-0.2006,0,-0.187,-0.1905,-0.1932,-0.1942,-0.1942,-0.1961,-0.1956,-0.1971,-0.1998,-0.1988,-0.1998,-0.2,-0.2,-0.1986,-0.199,-0.1998,-0.2,-0.1987,-0.1998,-0.1997,-0.1996,-0.1997,-0.1996,-0.2005,-0.2005,-0.2005,-0.2005,0,-0.1897,-0.1917,-0.1919,-0.1955,-0.1971,-0.1977,-0.1979,-0.1996,-0.2004,-0.2013,-0.2011,-0.2009,-0.2006,-0.2009,-0.1999,-0.1993,-0.1997,-0.2001,-0.1985,-0.1993,-0.1995,-0.1994,-0.2004,-0.2004,-0.2004,-0.2005,0,0,-0.1893,-0.1932,-0.1926,-0.1932,-0.1969,-0.1982,-0.1998,-0.1998,-0.1998,-0.202,-0.2012,-0.2006,-0.2,-0.1998,-0.1989,-0.1981,-0.1972,-0.1984,-0.1985,-0.1968,-0.1972,-0.1931,-0.1927,-0.1974,-0.1974,-0.1974,-0.1973,0,-0.1883,-0.1908,-0.1937,-0.1954,-0.1935,-0.1964,-0.198,-0.2006,-0.2017,-0.2023,-0.2008,-0.2008,-0.1998,-0.1992,-0.1982,-0.1986,-0.1971,-0.1972,-0.1981,-0.1982,-0.1929,-0.1925,-0.1759,-0.1741,-0.1973,-0.1973,-0.1973,0,-0.1848,-0.1887,-0.1889,-0.1929,-0.1915,-0.1947,-0.1963,-0.1982,-0.1995,-0.1999,-0.1996,-0.2003,-0.1991,-0.1989,-0.198,-0.1982,-0.1971,-0.197,-0.197,-0.1939,-0.194,-0.1773,-0.1732,-0.1972,-0.1972,-0.1972,-0.1972,0,-0.1797,-0.1827,-0.1841,-0.1853,-0.1909,-0.1915,-0.194,-0.1965,-0.1966,-0.1981,-0.1994,-0.199,-0.1994,-0.1987,-0.1985,-0.1983,-0.1984,-0.1983,-0.1932,-0.1929,-0.1794,-0.1779,-0.1966,-0.1966,-0.1966,-0.1966,-0.1966,0,-0.1758,-0.1758,-0.1817,-0.1827,-0.1839,-0.1884,-0.1891,-0.191,-0.1938,-0.1936,-0.1971,-0.1976,-0.1994,-0.2001,-0.1991,-0.1962,-0.1987,-0.1925,-0.1922,-0.1782,-0.1768,-0.1976,-0.1977,-0.1966,-0.1966,-0.1966,-0.1966,0,-0.1697,-0.1729,-0.1739,-0.1797,-0.1812,-0.1817,-0.1863,-0.1859,-0.1903,-0.1909,-0.1915,-0.1966,-0.1975,-0.1991,-0.199,-0.1963,-0.1946,-0.1925,-0.1762,-0.174,-0.1891,-0.1891,-0.1867,-0.1866,-0.1864,-0.1863,-0.1862,0,-0.1668,-0.167,-0.1712,-0.1714,-0.1741,-0.1763,-0.1766,-0.1819,-0.1822,-0.189,-0.1882,-0.1925,-0.1925,-0.1929,-0.1891,-0.1864,-0.1913,-0.1693,-0.1653,-0.1879,-0.1879,-0.1881,-0.1883,-0.1465,-0.1461,-0.1458,-0.1455,0,-0.1611,-0.162,-0.163,-0.1645,-0.165,-0.1662,-0.1679,-0.1684,-0.1737,-0.1762,-0.1791,-0.1812,-0.1831,-0.1737,-0.1718,-0.1676,-0.1688,-0.1624,-0.1889,-0.1524,-0.1501,-0.1502,-0.1516,-0.1425,-0.1428,-0.143,-0.1432,-0.1433,-0.1538,-0.1531,-0.1534,-0.154,-0.1552,-0.1541,-0.1509,-0.1544,-0.1542,-0.1552,-0.164,-0.1623,-0.1633,-0.1529,-0.1465,-0.1412,-0.1529,-0.144,-0.1449,-0.1462,-0.1424,-0.1401,-0.1299,-0.1301,-0.1303,-0.1305,-0.1306,0,-0.1432,-0.1431,-0.1432,-0.1417,-0.1394,-0.1439,-0.1427,-0.1381,-0.1348,-0.1391,-0.1402,-0.1283,-0.1232,-0.1256,-0.1133,-0.1117,-0.1094,-0.1062,-0.1019,-0.1048,-0.1075,-0.1016,-0.0783,-0.0782,-0.0781,-0.0779,0,0,-0.1362,-0.1318,-0.1327,-0.1252,-0.1254,-0.117,-0.114,-0.1107,-0.1106,-0.1067,-0.1059,-0.1158,-0.1211,-0.0996,-0.0945,-0.0845,-0.0937,-0.0799,-0.1214,-0.1192,-0.1217,-0.1285,-0.1227,0,0,0,0,0]},{"header":{"parameterUnit":"m.s-1","parameterCategory":2,"la1":30.2991,"la2":30.254,"lo1":-89.0895,"lo2":-89.0444,"dy":0.0017,"dx":0.0017,"nx":28,"ny":28,"refTime":"2024-03-10T03:00:00:Z","depth":"2","parameterNumber":3,"parameterNumberName":"V-component_of_CURRENTS"},"data":[0,0,0,0,0,0,0,0,0,0,0,0,0,0,0,0,0,0,0,0,0,0,0,0,0,0,0,0,0,0,0,0,0,0,0,0,0,0,0,0,0,0,0,0,0,0,0,0,0,0,0,0,0,0,0,0,0,0,-0.0103,-0.0102,0,-0.0019,-0.0018,-0.0017,0.0022,0.0022,0.0022,0.0022,0.0101,0.0103,0.0105,0,0,0,0,0,0,0,0,0,0,0,0,0,-0.013,-0.0131,-0.0103,-0.0102,-0.0101,-0.0019,-0.0018,-0.0016,0.0022,0.0022,0.0022,0.0022,0.01,0.0102,0.0105,0,0,0,0,0,0,0,0,0,0,0,0,0,-0.009,-0.0131,-0.0103,-0.0071,-0.0068,-0.0019,-0.0017,-0.0016,0.0022,0.0022,0.0022,0.0022,0.0099,0.0102,0.0105,0.0127,0,0,0.0115,0.0117,0,0,0,0,0,0,0,0,-0.0092,-0.0089,-0.0077,-0.0073,-0.0069,-0.0009,0.0002,0.0032,0.0022,-0.0012,0.0022,0.0022,0.0064,0.007,0.0086,0.0131,0.0134,0.0115,0.0117,0.0119,0.012,0,0,0,0,0,0,0,-0.0095,-0.0092,-0.007,-0.0076,-0.0071,-0.0027,-0.0022,0.0008,0.0025,-0.0009,-0.0006,0.0003,0.0066,0.0082,0.0088,0.0135,0.0115,0.0118,0.012,0.0121,0.0188,0.0187,0,0,0,0,0,0,-0.0111,-0.0095,-0.0072,-0.0067,-0.0081,-0.0027,-0.0022,-0.0028,0.0025,0.0033,0.0003,0.0005,0.0077,0.0084,0.0091,0.0102,0.0119,0.0122,0.0124,0.0188,0.0188,0.0187,0,0,0,0,0,0,-0.0112,-0.011,-0.0076,-0.0078,-0.007,-0.0027,-0.0034,-0.0027,-0.002,0.0035,0.0043,0.0001,0.0077,0.0086,0.0116,0.0105,0.0123,0.0126,0.0188,0.0188,0.0187,0.0135,0,0,0,0,0,0,-0.0113,-0.0111,-0.0128,-0.008,-0.0071,-0.0063,-0.0034,-0.0025,-0.0013,-0.0011,0.0035,0.0043,0.0078,0.0111,0.0119,0.011,0.0129,0.0188,0.0188,0.0188,0.0137,0.0133,0.0129,0,0,0,0,0,-0.0115,-0.0127,-0.0129,-0.0126,-0.0093,-0.0064,-0.0056,-0.0024,-0.0014,-0.0018,0.0022,0.0041,0.0114,0.0113,0.0123,0.0115,0.0188,0.0188,0.0188,0.0138,0.0133,0.0129,0,0,0,0,0,0,-0.0138,-0.0123,-0.0124,-0.0131,-0.0111,-0.0058,-0.0042,-0.0035,-0.0006,-0.0002,0.0045,0.0056,0.0077,0.0104,0.0102,0.0133,0.0152,0.0153,0.0111,0.0107,0.0103,0.0094,0.0131,0,0,0,0,0,-0.0155,-0.0185,-0.0142,-0.0163,-0.0131,-0.0094,-0.0079,-0.007,-0.0033,-0.0021,0.0014,0.0052,0.0086,0.01,0.0134,0.0153,0.0179,0.0152,0.0148,0.0145,0.0144,0.0172,0.017,0.0186,0.0186,0.0186,0,0,-0.0173,-0.0174,-0.0189,-0.0174,-0.0137,-0.0118,-0.0084,-0.0068,-0.007,-0.0016,0.0005,0.0041,0.0088,0.0112,0.0123,0.0131,0.0154,0.0144,0.0141,0.0142,0.0171,0.017,0.0168,0.0186,0.0186,0.0186,0,0,-0.0214,-0.0209,-0.0228,-0.0209,-0.0179,-0.0151,-0.0153,-0.0104,-0.0086,-0.0071,-0.0027,0.0002,0.0049,0.0085,0.0108,0.0103,0.0135,0.0107,0.0081,0.0107,0.0106,0.0106,0.0137,0.0139,0.0104,0.0104,0.0104,0,-0.0238,-0.0257,-0.0229,-0.0225,-0.0209,-0.0169,-0.0163,-0.0139,-0.0105,-0.0085,-0.0075,0.0003,0.0037,0.0075,0.0075,0.0093,0.0116,0.0093,0.0102,0.0102,0.0102,0.0134,0.0137,0.0101,0.0101,0.0102,0.0102,0,-0.0273,-0.0287,-0.0278,-0.0276,-0.0259,-0.025,-0.02,-0.0186,-0.0163,-0.014,-0.0099,-0.0045,0.0,0.0012,0.0044,0.0063,0.0081,0.0094,0.011,0.0097,0.0132,0.0136,0.0097,0.0098,0.0099,0.01,0,0,-0.0322,-0.0311,-0.031,-0.0318,-0.0284,-0.0275,-0.0254,-0.0217,-0.0205,-0.0171,-0.0148,-0.009,-0.0058,-0.003,0.0011,0.0034,0.0055,0.0059,0.0062,0.0085,0.0117,0.0139,0.0147,0.0067,0.0067,0.0068,0.0141,0,-0.0353,-0.0379,-0.0359,-0.0379,-0.0365,-0.0321,-0.0306,-0.028,-0.0242,-0.0209,-0.0148,-0.0113,-0.0075,-0.0056,-0.0026,0.0039,0.0064,0.0034,0.0131,0.0134,0.0151,0.0151,0.0137,0.0202,0.0145,0.0146,0.0147,0,-0.037,-0.0398,-0.0419,-0.0424,-0.0405,-0.0417,-0.0378,-0.0365,-0.0299,-0.0265,-0.0215,-0.0164,-0.0108,-0.0085,0.0014,-0.0008,0.0048,0.0093,0.0097,0.014,0.0165,0.0207,0.0213,0.0155,0.0154,0.0153,0.0153,0,-0.0413,-0.0427,-0.0459,-0.046,-0.0454,-0.0453,-0.0441,-0.0386,-0.0361,-0.0302,-0.0281,-0.0202,-0.0166,-0.0088,0.0016,0.0013,0.012,0.0129,0.0204,0.0206,0.0225,0.0229,0.0189,0.0189,0.0189,0.0189,0.0189,0,-0.0449,-0.047,-0.0488,-0.0512,-0.0541,-0.0507,-0.0511,-0.0478,-0.0424,-0.0403,-0.0319,-0.0287,-0.0168,-0.0086,0.0004,0.0123,0.0115,0.0202,0.0226,0.0207,0.0208,0.0191,0.019,0.0192,0.0191,0.019,0.019,0,-0.0487,-0.0495,-0.0538,-0.0561,-0.0565,-0.0587,-0.0568,-0.056,-0.0503,-0.0474,-0.0457,-0.0348,-0.0238,-0.011,0.0024,0.0107,0.0217,0.0259,0.0232,0.0251,0.0289,0.0284,0.0348,0.035,0.0351,0.0352,0.0353,0,-0.0503,-0.0534,-0.0588,-0.0623,-0.064,-0.0659,-0.0661,-0.0609,-0.0591,-0.051,-0.0498,-0.0387,-0.0298,-0.0082,0.0081,0.0251,0.0248,0.0331,0.0324,0.0288,0.0305,0.0299,0.0293,0.0331,0.0332,0.0332,0.0333,0,-0.0542,-0.0565,-0.0609,-0.0689,-0.0721,-0.0744,-0.0741,-0.0734,-0.0663,-0.063,-0.056,-0.0485,-0.0267,-0.0071,0.0156,0.0248,0.0305,0.0347,0.0322,0.0289,0.0277,0.0291,0.0286,0.0337,0.0336,0.0336,0.0336,0.0336,-0.0559,-0.0608,-0.067,-0.074,-0.0786,-0.0814,-0.0813,-0.0796,-0.0765,-0.0689,-0.0613,-0.0483,-0.0278,0.0044,0.0211,0.0363,0.0354,0.0397,0.0394,0.039,0.0371,0.0361,0.0434,0.0434,0.0434,0.0434,0.0434,0,-0.0576,-0.0635,-0.0712,-0.0791,-0.0848,-0.0857,-0.0851,-0.0827,-0.0794,-0.0715,-0.0631,-0.0411,-0.0174,0.0035,0.0287,0.0436,0.042,0.0452,0.0411,0.0406,0.0402,0.0381,0.0448,0.0448,0.0449,0.0449,0,0,-0.0591,-0.0661,-0.0711,-0.0813,-0.0871,-0.0893,-0.0885,-0.0851,-0.078,-0.0701,-0.0598,-0.044,-0.0172,0.001,0.0205,0.0339,0.0328,0.0342,0.0317,0.024,0.0234,0.0357,0.0318,0,0,0,0,0]}],[{"header":{"parameterUnit":"m.s-1","parameterCategory":2,"la1":30.2991,"la2":30.254,"lo1":-89.0895,"lo2":-89.0444,"dy":0.0017,"dx":0.0017,"nx":28,"ny":28,"refTime":"2024-03-10T03:00:00:Z","depth":"4","parameterNumber":2,"parameterNumberName":"U-component_of_CURRENTS"},"data":[0,0,0,0,0,0,0,0,0,0,0,0,0,0,0,0,0,0,0,0,0,0,0,0,0,0,0,0,0,0,0,0,0,0,0,0,0,0,0,0,0,0,0,0,0,0,0,0,0,0,0,0,0,0,0,0,0,0,-0.0946,-0.0947,0,-0.1031,-0.1032,-0.1032,-0.1045,-0.1044,-0.1044,-0.1043,-0.1067,-0.1068,-0.1069,0,0,0,0,0,0,0,0,0,0,0,0,0,-0.0899,-0.0899,-0.0946,-0.0947,-0.0949,-0.1031,-0.1032,-0.1033,-0.1045,-0.1044,-0.1044,-0.1043,-0.1067,-0.1068,-0.1069,0,0,0,0,0,0,0,0,0,0,0,0,0,-0.0942,-0.0899,-0.0946,-0.0966,-0.0969,-0.103,-0.1032,-0.1033,-0.1045,-0.1044,-0.1043,-0.1043,-0.1066,-0.1068,-0.107,-0.1097,0,0,-0.1075,-0.1076,0,0,0,0,0,0,0,0,-0.094,-0.0944,-0.0962,-0.0965,-0.0968,-0.1028,-0.1024,-0.1052,-0.1045,-0.1014,-0.1043,-0.1042,-0.1051,-0.1054,-0.1069,-0.1098,-0.11,-0.1075,-0.1076,-0.1077,-0.1077,0,0,0,0,0,0,0,-0.0937,-0.0941,-0.0977,-0.0964,-0.0967,-0.1007,-0.1011,-0.103,-0.1033,-0.1017,-0.1018,-0.1031,-0.1051,-0.1067,-0.107,-0.11,-0.1075,-0.1077,-0.1078,-0.1078,-0.1193,-0.1195,0,0,0,0,0,0,-0.0926,-0.0937,-0.0975,-0.098,-0.0954,-0.1008,-0.1013,-0.1008,-0.1034,-0.1039,-0.1032,-0.1032,-0.1065,-0.1068,-0.107,-0.1161,-0.1077,-0.1079,-0.108,-0.1191,-0.1194,-0.1196,0,0,0,0,0,0,-0.0925,-0.0928,-0.0971,-0.0964,-0.0972,-0.1009,-0.1005,-0.101,-0.104,-0.1047,-0.105,-0.1057,-0.1064,-0.1068,-0.1114,-0.1159,-0.1079,-0.1081,-0.1189,-0.1192,-0.1195,-0.1306,0,0,0,0,0,0,-0.0922,-0.0926,-0.0931,-0.0962,-0.0972,-0.101,-0.1006,-0.1013,-0.105,-0.105,-0.107,-0.107,-0.1064,-0.1112,-0.1116,-0.116,-0.1082,-0.1186,-0.119,-0.1194,-0.13,-0.1312,-0.1323,0,0,0,0,0,-0.092,-0.0917,-0.093,-0.0935,-0.0972,-0.1011,-0.102,-0.1042,-0.1052,-0.1066,-0.1095,-0.107,-0.1138,-0.1116,-0.112,-0.1166,-0.1185,-0.1189,-0.1194,-0.1294,-0.131,-0.1323,0,0,0,0,0,0,-0.0903,-0.0919,-0.0934,-0.0937,-0.0977,-0.1013,-0.1028,-0.1056,-0.1093,-0.1098,-0.1103,-0.1107,-0.1164,-0.1149,-0.1125,-0.1208,-0.1154,-0.116,-0.123,-0.1244,-0.1255,-0.1231,-0.1084,0,0,0,0,0,-0.0902,-0.0894,-0.0936,-0.094,-0.0957,-0.1001,-0.1025,-0.1051,-0.1085,-0.1101,-0.1124,-0.1149,-0.1186,-0.1202,-0.1222,-0.1272,-0.1241,-0.13,-0.1312,-0.1322,-0.1305,-0.1311,-0.1322,-0.1211,-0.1211,-0.121,0,0,-0.09,-0.0905,-0.0905,-0.0936,-0.0962,-0.1007,-0.1012,-0.1051,-0.11,-0.1098,-0.1164,-0.1193,-0.1208,-0.1269,-0.1291,-0.1263,-0.1343,-0.1328,-0.1336,-0.1313,-0.1317,-0.1328,-0.1337,-0.1214,-0.1213,-0.1213,0,0,-0.0896,-0.0893,-0.09,-0.0935,-0.0984,-0.1013,-0.1031,-0.109,-0.1121,-0.1196,-0.1213,-0.1271,-0.1318,-0.1349,-0.1368,-0.1453,-0.1406,-0.1462,-0.1503,-0.1512,-0.152,-0.1527,-0.1522,-0.1528,-0.1466,-0.1466,-0.1466,0,-0.0904,-0.0911,-0.0914,-0.0946,-0.0981,-0.1019,-0.1067,-0.1109,-0.1185,-0.1224,-0.1222,-0.1333,-0.1355,-0.1435,-0.1472,-0.1481,-0.1465,-0.1453,-0.1526,-0.1532,-0.1538,-0.153,-0.1535,-0.1472,-0.1471,-0.1471,-0.147,0,-0.0913,-0.0941,-0.0946,-0.0992,-0.1031,-0.107,-0.1134,-0.1185,-0.1232,-0.1287,-0.1378,-0.1421,-0.1478,-0.1512,-0.1523,-0.1589,-0.1561,-0.1543,-0.1488,-0.1555,-0.1544,-0.1547,-0.148,-0.1478,-0.1477,-0.1475,0,0,-0.088,-0.0943,-0.0953,-0.0987,-0.1062,-0.1091,-0.117,-0.1254,-0.1313,-0.1386,-0.1459,-0.1551,-0.1573,-0.1594,-0.1622,-0.1641,-0.1693,-0.1613,-0.1611,-0.1604,-0.1701,-0.1589,-0.1581,-0.1688,-0.1689,-0.1689,-0.1684,0,-0.0897,-0.0955,-0.0991,-0.1064,-0.1098,-0.1163,-0.1235,-0.1319,-0.1386,-0.1463,-0.152,-0.1594,-0.1604,-0.1642,-0.1669,-0.1686,-0.1702,-0.1695,-0.1638,-0.1636,-0.1525,-0.1581,-0.1692,-0.1686,-0.1687,-0.1687,-0.1687,0,-0.0899,-0.0934,-0.1008,-0.1097,-0.1121,-0.1181,-0.1284,-0.1355,-0.1469,-0.1525,-0.16,-0.1638,-0.1705,-0.1687,-0.1728,-0.1721,-0.1715,-0.1715,-0.1715,-0.1563,-0.1529,-0.16,-0.1692,-0.1691,-0.1691,-0.1691,-0.1691,0,-0.0843,-0.0945,-0.0997,-0.103,-0.1141,-0.1195,-0.1258,-0.1379,-0.1447,-0.1554,-0.1606,-0.1681,-0.1714,-0.1723,-0.1736,-0.1733,-0.1749,-0.1743,-0.1634,-0.1626,-0.1678,-0.1669,-0.1751,-0.1751,-0.1751,-0.1751,-0.1751,0,-0.082,-0.0863,-0.098,-0.0999,-0.108,-0.1169,-0.1264,-0.1343,-0.1464,-0.1535,-0.1622,-0.1664,-0.1721,-0.1742,-0.1741,-0.1689,-0.1751,-0.1635,-0.1616,-0.1728,-0.1726,-0.168,-0.1672,-0.1751,-0.1751,-0.1751,-0.1751,0,-0.0746,-0.082,-0.088,-0.1003,-0.1049,-0.1101,-0.125,-0.132,-0.1436,-0.152,-0.155,-0.1657,-0.1671,-0.171,-0.1724,-0.1678,-0.1653,-0.1618,-0.1733,-0.1722,-0.1524,-0.1522,-0.1491,-0.1487,-0.1484,-0.1481,-0.1479,0,-0.072,-0.0736,-0.086,-0.09,-0.0958,-0.1058,-0.1136,-0.1284,-0.1353,-0.1495,-0.1517,-0.158,-0.1628,-0.1558,-0.1607,-0.1585,-0.1569,-0.1547,-0.1537,-0.1512,-0.1498,-0.1501,-0.1504,-0.1473,-0.1472,-0.1471,-0.1471,0,-0.0657,-0.0699,-0.0749,-0.0824,-0.0902,-0.0994,-0.1103,-0.1149,-0.1304,-0.1414,-0.1444,-0.1457,-0.1468,-0.1475,-0.1467,-0.1455,-0.1558,-0.1511,-0.1518,-0.1509,-0.149,-0.148,-0.1486,-0.1459,-0.146,-0.1462,-0.1462,0,-0.0619,-0.0632,-0.0693,-0.0749,-0.0836,-0.0902,-0.098,-0.1064,-0.1151,-0.131,-0.1304,-0.137,-0.1442,-0.1407,-0.1402,-0.1378,-0.1358,-0.1317,-0.1334,-0.1348,-0.1304,-0.1259,-0.1135,0,0,0,0,0,-0.0593,-0.0583,-0.0619,-0.0682,-0.0755,-0.0814,-0.0951,-0.1037,-0.1179,-0.1163,-0.1238,-0.1241,-0.1239,-0.1278,-0.1221,-0.1337,-0.1364,-0.1267,-0.1325,-0.1394,-0.1407,-0.1369,0,0,0,0,0,0,-0.0569,-0.0595,-0.059,-0.0607,-0.0636,-0.073,-0.0816,-0.092,-0.093,-0.1059,-0.1062,-0.1148,-0.1163,-0.1235,-0.1184,-0.1196,-0.1205,-0.1314,-0.1311,-0.1386,-0.1398,-0.1409,-0.1375,0,0,0,0,0]},{"header":{"parameterUnit":"m.s-1","parameterCategory":2,"la1":30.2991,"la2":30.254,"lo1":-89.0895,"lo2":-89.0444,"dy":0.0017,"dx":0.0017,"nx":28,"ny":28,"refTime":"2024-03-10T03:00:00:Z","depth":"4","parameterNumber":3,"parameterNumberName":"V-component_of_CURRENTS"},"data":[0,0,0,0,0,0,0,0,0,0,0,0,0,0,0,0,0,0,0,0,0,0,0,0,0,0,0,0,0,0,0,0,0,0,0,0,0,0,0,0,0,0,0,0,0,0,0,0,0,0,0,0,0,0,0,0,0,0,0.0086,0.0086,0,0.0112,0.0113,0.0114,0.0162,0.0163,0.0163,0.0164,0.024,0.0242,0.0243,0,0,0,0,0,0,0,0,0,0,0,0,0,0.0095,0.0095,0.0086,0.0086,0.0086,0.0112,0.0113,0.0114,0.0162,0.0163,0.0163,0.0164,0.024,0.0241,0.0243,0,0,0,0,0,0,0,0,0,0,0,0,0,0.0107,0.0095,0.0086,0.011,0.0112,0.0112,0.0113,0.0114,0.0162,0.0163,0.0164,0.0164,0.0239,0.0241,0.0243,0.0241,0,0,0.025,0.0251,0,0,0,0,0,0,0,0,0.0107,0.0108,0.0107,0.0109,0.0111,0.0131,0.0144,0.0157,0.0162,0.0148,0.0164,0.0165,0.0205,0.021,0.0218,0.0245,0.0248,0.0251,0.0252,0.0253,0.0254,0,0,0,0,0,0,0,0.0106,0.0107,0.0101,0.0107,0.0109,0.0125,0.0128,0.0147,0.0176,0.0149,0.0152,0.0147,0.0207,0.0216,0.0221,0.0249,0.0251,0.0253,0.0254,0.0255,0.0297,0.0297,0,0,0,0,0,0,0.0092,0.0106,0.01,0.0101,0.0106,0.0124,0.0127,0.0127,0.0175,0.0181,0.0146,0.0149,0.0212,0.0218,0.0224,0.0223,0.0253,0.0255,0.0256,0.0297,0.0297,0.0297,0,0,0,0,0,0,0.0092,0.0091,0.0099,0.0101,0.0102,0.0122,0.0122,0.0127,0.0138,0.0171,0.018,0.0151,0.0213,0.022,0.0238,0.0227,0.0256,0.0258,0.0298,0.0297,0.0297,0.0223,0,0,0,0,0,0,0.0092,0.0092,0.0091,0.01,0.0101,0.0095,0.0121,0.0127,0.0131,0.0136,0.0178,0.0186,0.0214,0.0234,0.024,0.023,0.026,0.0298,0.0297,0.0297,0.0226,0.022,0.0215,0,0,0,0,0,0.0093,0.009,0.0091,0.0091,0.0099,0.0094,0.0097,0.0117,0.0131,0.0131,0.0159,0.0184,0.0236,0.0235,0.0243,0.0233,0.0298,0.0298,0.0297,0.0228,0.0221,0.0215,0,0,0,0,0,0,0.0094,0.0094,0.0096,0.0094,0.0089,0.0101,0.01,0.0111,0.0133,0.0139,0.0177,0.0187,0.0199,0.0227,0.0225,0.0246,0.0273,0.0273,0.0218,0.0212,0.0207,0.0202,0.0262,0,0,0,0,0,0.0091,0.0094,0.0086,0.0086,0.0077,0.0086,0.0088,0.0097,0.0112,0.0123,0.015,0.0181,0.0201,0.0214,0.0238,0.0246,0.0276,0.0247,0.0242,0.0237,0.0239,0.0266,0.0263,0.0295,0.0295,0.0295,0,0,0.0089,0.0091,0.0092,0.0086,0.0084,0.0068,0.0091,0.0085,0.0081,0.0127,0.0135,0.0161,0.0199,0.0208,0.0216,0.023,0.0243,0.0236,0.0232,0.0237,0.0265,0.0262,0.0259,0.0294,0.0295,0.0295,0,0,0.0078,0.0085,0.0073,0.0064,0.0053,0.0059,0.0053,0.0055,0.0065,0.0068,0.0101,0.0119,0.0151,0.0174,0.019,0.0171,0.0213,0.0181,0.0151,0.0176,0.0173,0.0172,0.02,0.0201,0.018,0.0179,0.0179,0,0.0072,0.0058,0.0068,0.0046,0.0036,0.0049,0.0024,0.0032,0.0045,0.005,0.0063,0.0108,0.0135,0.0149,0.0143,0.0158,0.0183,0.0168,0.0168,0.0167,0.0166,0.0196,0.0198,0.0176,0.0176,0.0177,0.0177,0,0.0044,0.0028,0.0017,-0.0002,-0.0008,-0.0025,-0.0027,-0.0025,-0.0012,-0.0,0.0015,0.005,0.008,0.0087,0.0108,0.0116,0.0138,0.0154,0.0179,0.0158,0.0191,0.0195,0.0171,0.0172,0.0173,0.0174,0,0,0.0039,0.0003,-0.0002,-0.0026,-0.0036,-0.0048,-0.0057,-0.0063,-0.0067,-0.0046,-0.0043,-0.0014,0.0012,0.0033,0.0062,0.0082,0.0091,0.0111,0.0114,0.0132,0.0149,0.014,0.0143,0.0105,0.0106,0.0106,0.0172,0,0.0008,-0.0042,-0.0045,-0.0089,-0.0119,-0.0111,-0.0123,-0.0119,-0.0104,-0.0095,-0.0057,-0.004,-0.001,0.0001,0.0024,0.0078,0.0098,0.0072,0.0175,0.0178,0.0166,0.0146,0.0107,0.0175,0.0176,0.0177,0.0177,0,-0.0021,-0.005,-0.0104,-0.0142,-0.0156,-0.0174,-0.0183,-0.0191,-0.0169,-0.0157,-0.0127,-0.009,-0.0053,-0.0029,0.0052,0.0034,0.0085,0.0125,0.0129,0.015,0.0175,0.0205,0.0185,0.0184,0.0183,0.0183,0.0182,0,-0.0028,-0.0089,-0.0131,-0.0147,-0.0186,-0.0205,-0.0216,-0.0208,-0.0217,-0.0189,-0.0184,-0.0129,-0.01,-0.0032,0.0054,0.0054,0.0145,0.0158,0.0199,0.0199,0.0222,0.0223,0.021,0.021,0.021,0.021,0.021,0,-0.0049,-0.0082,-0.0145,-0.0167,-0.0222,-0.0231,-0.0267,-0.0268,-0.0263,-0.0272,-0.0214,-0.0199,-0.0101,-0.0034,0.0045,0.0133,0.0141,0.0192,0.0212,0.0189,0.0186,0.0224,0.0225,0.0212,0.0212,0.0211,0.0211,0,-0.004,-0.008,-0.014,-0.0203,-0.023,-0.0263,-0.0313,-0.0335,-0.032,-0.0326,-0.0318,-0.0249,-0.0163,-0.0059,0.0057,0.0115,0.0204,0.0234,0.0204,0.0222,0.0246,0.0243,0.0283,0.0283,0.0284,0.0284,0.0284,0,-0.004,-0.0069,-0.0168,-0.0217,-0.025,-0.0306,-0.035,-0.0364,-0.0379,-0.0355,-0.0356,-0.0278,-0.0221,-0.0058,0.0049,0.0196,0.0215,0.0262,0.0249,0.0236,0.0252,0.0248,0.0245,0.0284,0.0284,0.0284,0.0284,0,-0.0038,-0.0075,-0.0128,-0.0229,-0.0297,-0.0373,-0.0424,-0.0441,-0.0447,-0.0435,-0.0385,-0.0297,-0.0199,-0.0067,0.0048,0.0154,0.023,0.0263,0.0264,0.0252,0.0237,0.0252,0.0249,0.0284,0.0284,0.0284,0.0284,0,-0.0042,-0.0078,-0.0155,-0.024,-0.0332,-0.0413,-0.0445,-0.0467,-0.0481,-0.0445,-0.0428,-0.0314,-0.0244,-0.0089,0.0018,0.0119,0.0142,0.0172,0.0177,0.0178,0.0125,0.009,0.0106,0,0,0,0,0,-0.0051,-0.0083,-0.0162,-0.027,-0.036,-0.0416,-0.0485,-0.0505,-0.0509,-0.0482,-0.0454,-0.0359,-0.0199,-0.0121,-0.0023,0.0016,0.0155,0.0133,0.0191,0.0286,0.0286,0.024,0,0,0,0,0,0,-0.0059,-0.0118,-0.0153,-0.0271,-0.0348,-0.0452,-0.0502,-0.0516,-0.0492,-0.0471,-0.0383,-0.0334,-0.0173,-0.0249,-0.0017,0.0014,0.0062,0.0213,0.0215,0.0287,0.0286,0.0286,0.0239,0,0,0,0,0]}]]